Weather History for Nuiqsut, AK

Change the Weather History Date:

Thursday, April 24, 2014

  Actual Average (PAKU) Record (PAKU)
Temperature  
Mean Temperature 6 °F -  
Max Temperature 12 °F 11 °F 33 °F (2008)
Min Temperature 1 °F 1 °F -20 °F (1984)
Degree Days  
Heating Degree Days 60    
Moisture  
Dew Point 8 °F    
Average Humidity 97    
Maximum Humidity 100    
Minimum Humidity 92    
Precipitation  
Precipitation 0.00 in - - ()
Sea Level Pressure  
Sea Level Pressure 29.85 in    
Wind  
Wind Speed 3 mph (East)    
Max Wind Speed 6 mph    
Max Gust Speed -    
Visibility 2 miles    
Events Fog , Rain , Snow    
Averages and records for this station are not official NWS values.
T = Trace of Precipitation, MM = Missing Value Source: NWS Daily Summary

Daily Weather History Graph

Daily Weather History Graph

Search for Another Location

Airport:

Trip Planner

Search our weather history database for the weather conditions in past years. The results will help you decide how hot, cold, wet, or windy it might be!

Date:

Astronomy

Apr. 24, 2014 Rise Set
Actual Time 5:09 AM AKDT 10:58 PM AKDT
Civil Twilight 3:11 AM AKDT 1:05 AM AKDT
Nautical Twilight Sun does not rise Sun does not rise
Astronomical Twilight Sun does not rise Sun does not rise
Moon 5:20 AM AKDT (4/24) 3:43 PM AKDT (4/24)
Length of Visible Light 21h 54m
Length of Day
17h 48m
Waning Crescent, 23% of the Moon is Illuminated
Apr 24
Waning Crescent
Apr 28
New
May 6
First Quarter
May 14
Full
May 21
Last Quarter

Hourly Weather History & Observations

Time (AKDT) Temp. Windchill Dew Point Humidity Pressure Visibility Wind Dir Wind Speed Gust Speed Precip Events Conditions
12:53 AM 1.9 °F -7.6 °F 1.0 °F 96% 29.91 in 0.2 mi SSW 4.6 mph - 0.00 in Fog Light Freezing Fog
1:53 AM 5.0 °F -5.6 °F 5.0 °F 100% 29.91 in 0.5 mi SW 5.8 mph - 0.00 in Fog Light Freezing Fog
2:16 AM 5.0 °F -4.1 °F 3.0 °F 92% 29.91 in 0.2 mi WSW 4.6 mph - 0.00 in Fog Light Freezing Fog
2:40 AM 5.0 °F -2.1 °F 5.0 °F 100% 29.91 in 0.2 mi WSW 3.5 mph - 0.00 in Fog Light Freezing Fog
2:53 AM 5.0 °F -4.1 °F 5.0 °F 100% 29.91 in 0.2 mi WSW 4.6 mph - 0.00 in Fog Light Freezing Fog
3:53 AM 6.1 °F - 6.1 °F 100% 29.90 in 0.2 mi Calm Calm - 0.00 in Fog Light Freezing Fog
4:25 AM 6.1 °F - 5.0 °F 95% 29.90 in 0.2 mi Calm Calm - 0.00 in Fog Light Freezing Fog
4:53 AM 6.1 °F - 5.0 °F 95% 29.91 in 0.5 mi Calm Calm - 0.00 in Fog Light Freezing Fog
5:53 AM 6.1 °F - 6.1 °F 100% 29.90 in 0.2 mi Calm Calm - 0.00 in Fog Light Freezing Fog
6:10 AM 6.1 °F - 5.0 °F 95% 29.89 in 0.2 mi Calm Calm - 0.00 in Fog Light Freezing Fog
6:53 AM 7.0 °F - 6.1 °F 96% 29.89 in 0.2 mi Calm Calm - 0.00 in Fog Light Freezing Fog
7:29 AM 8.1 °F - 8.1 °F 100% 29.89 in 0.2 mi Calm Calm - 0.00 in Fog Light Freezing Fog
7:53 AM 7.0 °F - 7.0 °F 100% 29.89 in 0.2 mi Calm Calm - 0.00 in Fog Light Freezing Fog
8:53 AM 8.1 °F -0.5 °F 8.1 °F 100% 29.89 in 0.2 mi SSW 4.6 mph - 0.00 in Fog Light Freezing Fog
9:53 AM 9.0 °F 0.6 °F 9.0 °F 100% 29.89 in 0.2 mi South 4.6 mph - 0.00 in Fog Light Freezing Fog
10:24 AM 9.0 °F 0.6 °F 9.0 °F 100% 29.87 in 0.8 mi South 4.6 mph - N/A   Overcast
10:31 AM 9.0 °F 2.4 °F 9.0 °F 100% 29.87 in 1.2 mi SW 3.5 mph - N/A   Overcast
10:53 AM 8.1 °F - 8.1 °F 100% 29.88 in 1.5 mi Calm Calm - N/A   Overcast
11:05 AM 8.1 °F - 8.1 °F 100% 29.87 in 2.5 mi Calm Calm - 0.00 in   Overcast
11:14 AM 9.0 °F - 9.0 °F 100% 29.88 in 0.8 mi Calm Calm - 0.00 in   Overcast
11:33 AM 10.0 °F - 10.0 °F 100% 29.88 in 1.8 mi Calm Calm - 0.00 in   Overcast
11:53 AM 9.0 °F 2.4 °F 9.0 °F 100% 29.87 in 1.0 mi WNW 3.5 mph - 0.00 in   Overcast
12:12 PM 10.0 °F 3.6 °F 8.1 °F 92% 29.87 in 2.0 mi North 3.5 mph - 0.00 in Snow Light Snow
12:40 PM 9.0 °F -0.9 °F 8.1 °F 96% 29.87 in 1.5 mi East 5.8 mph - 0.00 in Snow Light Snow
12:47 PM 8.6 °F 0.1 °F 8.6 °F 100% 29.87 in 3.0 mi East 4.6 mph - 0.00 in Snow Light Snow
12:53 PM 9.0 °F 0.6 °F 8.1 °F 96% 29.88 in 2.0 mi SE 4.6 mph - 0.00 in Snow Light Snow
1:00 PM 9.0 °F 0.6 °F 8.1 °F 96% 29.87 in 1.8 mi ESE 4.6 mph - 0.00 in Snow Light Snow
1:05 PM 9.0 °F - 9.0 °F 100% 29.87 in 3.0 mi Calm Calm - 0.00 in Snow Light Snow
1:53 PM 10.9 °F - 9.0 °F 92% 29.86 in 6.0 mi Calm Calm - 0.00 in   Overcast
2:34 PM 10.0 °F 3.6 °F 9.0 °F 95% 29.86 in 1.8 mi ENE 3.5 mph - 0.00 in Snow Light Snow
2:46 PM 10.0 °F 1.8 °F 9.0 °F 95% 29.86 in 3.0 mi ESE 4.6 mph - 0.00 in Snow Light Snow
2:53 PM 9.0 °F 2.4 °F 9.0 °F 100% 29.87 in 4.0 mi ESE 3.5 mph - 0.00 in   Overcast
3:03 PM 9.0 °F 2.4 °F 8.1 °F 96% 29.85 in 2.5 mi ESE 3.5 mph - 0.00 in Snow Light Snow
3:21 PM 9.0 °F 0.6 °F 8.1 °F 96% 29.86 in 3.0 mi ESE 4.6 mph - 0.00 in Snow Light Snow
3:53 PM 10.9 °F - 9.0 °F 92% 29.85 in 5.0 mi Calm Calm - 0.00 in   Overcast
4:53 PM 10.0 °F 3.6 °F 8.1 °F 92% 29.85 in 3.0 mi ESE 3.5 mph - 0.00 in Snow Light Snow
5:15 PM 10.0 °F 1.8 °F 8.1 °F 92% 29.83 in 7.0 mi ENE 4.6 mph - 0.00 in   Overcast
5:50 PM 10.4 °F - 8.6 °F 92% 29.82 in 1.8 mi Calm Calm - 0.00 in   Overcast
5:53 PM 10.0 °F 1.8 °F 8.1 °F 92% 29.83 in 2.0 mi East 4.6 mph - 0.00 in Snow Light Snow
6:05 PM 10.0 °F 1.8 °F 8.1 °F 92% 29.83 in 3.0 mi ENE 4.6 mph - 0.00 in   Overcast
6:50 PM 10.4 °F 4.0 °F 8.6 °F 92% 29.82 in 2.0 mi East 3.5 mph - 0.00 in Snow Light Snow
6:53 PM 10.0 °F 0.4 °F 8.1 °F 92% 29.83 in 2.0 mi East 5.8 mph - 0.00 in Snow Light Snow
7:01 PM 9.0 °F 2.4 °F 8.1 °F 96% 29.82 in 6.0 mi East 3.5 mph - 0.00 in   Overcast
7:53 PM 9.0 °F 0.6 °F 9.0 °F 100% 29.82 in 10.0 mi East 4.6 mph - 0.00 in   Overcast
8:00 PM 9.0 °F - 9.0 °F 100% 29.81 in 1.5 mi Calm Calm - 0.00 in   Overcast
8:08 PM 10.0 °F - 10.0 °F 100% 29.81 in 0.2 mi Calm Calm - 0.00 in Fog Light Freezing Fog
8:24 PM 10.0 °F - 9.0 °F 95% 29.80 in 0.5 mi Calm Calm - 0.00 in Fog Light Freezing Fog
8:34 PM 10.0 °F 3.6 °F 10.0 °F 100% 29.79 in 0.2 mi NNE 3.5 mph - 0.00 in Fog Light Freezing Fog
8:53 PM 10.9 °F - 9.0 °F 92% 29.80 in 0.2 mi Calm Calm - 0.00 in Fog Light Freezing Fog
9:53 PM 10.0 °F 1.8 °F 10.0 °F 100% 29.79 in 0.2 mi North 4.6 mph - 0.00 in Fog Light Freezing Fog
10:00 PM 10.0 °F 3.6 °F 10.0 °F 100% 29.78 in 0.2 mi North 3.5 mph - N/A Fog Light Freezing Fog
10:10 PM 10.9 °F - 10.9 °F 100% 29.78 in 0.2 mi Calm Calm - 0.00 in Fog , Rain Light Freezing Rain
10:19 PM 10.9 °F 4.7 °F 10.0 °F 96% 29.78 in 0.2 mi North 3.5 mph - 0.00 in Fog Light Freezing Fog
10:53 PM 10.9 °F 4.7 °F 10.9 °F 100% 29.78 in 0.2 mi NNE 3.5 mph - 0.00 in Fog Light Freezing Fog
11:00 PM 10.9 °F 4.7 °F 10.0 °F 96% 29.77 in 0.2 mi NNE 3.5 mph - N/A Fog Light Freezing Fog
11:10 PM 10.9 °F 1.4 °F 10.9 °F 100% 29.77 in 0.2 mi NNE 5.8 mph - N/A Fog Light Freezing Fog
11:53 PM 10.0 °F 0.4 °F 10.0 °F 100% 29.77 in 0.2 mi NE 5.8 mph - N/A Fog Light Freezing Fog